Location: Brivio
(45.7333°N, 9.4500°E)
Time: 17:19:52
(UTC+00:00)

Cosmos 2082 Rocket - Pass Details

Date: 18 October 2019
Orbit: 832 x 854 km, 71.0° (Epoch: 21 November)

Event Time Altitude Azimuth Distance (km) Brightness Sun altitude
Rises 16:57:12 0° 341° (NNW) 3,434 5.5 -5.2°
Reaches altitude 10° 17:00:19 10° 357° (N) 2,493 4.6 -5.7°
Maximum altitude 17:04:34 21° 45° (NE) 1,834 3.5 -6.4°
Drops below altitude 10° 17:08:48 10° 93° (E) 2,476 4.0 -7.2°
Enters shadow 17:09:29 - 98° (E) 2,669 4.2 -7.3°
